Regional Weather Roundup
Issued by NWS

Home | Current Version | Previous Version | Graphics & Text | Print | Product List | Glossary On
Versions: 1 2 3 4 5 6 7 8 9 10 11 12 13 14 15 16 17 18 19 20 21 22 23 24 25 26 27 28 29 30 31 32 33 34 35 36 37 38 39 40 41 42 43 44 45 46 47 48 49 50
000
ASUS43 KMKX 300800
RWRWI

WISCONSIN REGIONAL WEATHER ROUNDUP
NATIONAL WEATHER SERVICE MILWAUKEE/SULLIVAN WI
300 AM CDT TUE MAY 30 2017

NOTE: "FAIR" INDICATES FEW OR NO CLOUDS BELOW 12,000 FEET WITH NO
SIGNIFICANT WEATHER AND/OR OBSTRUCTIONS TO VISIBILITY.

WIZ001-002-006>008-014>016-023>028-300900-
NORTHWEST WISCONSIN

CITY           SKY/WX    TMP DP  RH WIND       PRES   REMARKS
SUPERIOR ARPT  NOT AVBL
ASHLAND        CLOUDY    52  45  77 W9        29.75F
HAYWARD        CLOUDY    52  43  71 W9        29.78S
SIREN          CLOUDY    51  44  75 W6        29.81S
CUMBERLAND     PTCLDY    48  43  81 W9        29.81F
RICE LAKE      PTCLDY    50  46  87 W8        29.83S
CHETEK         CLOUDY    49  47  93 CALM      29.82S
LADYSMITH      CLOUDY    50  47  88 SW5       29.81F
EAU CLAIRE     NOT AVBL
MENOMONIE      CLOUDY    53  47  81 SW9       29.84S
NEW RICHMOND   CLEAR     50  45  82 W9        29.84S
OSCEOLA        CLOUDY    51  46  84 W10       29.87S
$$

WIZ003>005-009-010-017-018-300900-
NORTH CENTRAL WISCONSIN

CITY           SKY/WX    TMP DP  RH WIND       PRES   REMARKS
MANITOWISH WTR CLOUDY    49  49  99 W8        29.75S
ARBOR VITAE    CLOUDY    52  48  87 W8        29.75F
WOODRUFF       CLOUDY    52  48  87 W8        29.75F
RHINELANDER    CLOUDY    50  48  93 W7        29.77F
EAGLE RIVER    CLOUDY    47  47  97 CALM      29.75S
LAND O LAKES   CLOUDY    48  47  94 CALM      29.76F
PHILLIPS       CLOUDY    48  47  99 W5        29.77F
TOMAHAWK       MOCLDY    46  45  95 CALM      29.78F
MEDFORD        MOCLDY    48  45  90 SW5       29.79F
MERRILL        CLEAR     47  47 100 SW3       29.80S
$$

WIZ029-030-035-036-043>047-300900-
CENTRAL WISCONSIN

CITY           SKY/WX    TMP DP  RH WIND       PRES   REMARKS
WAUSAU         PTCLDY    50  47  89 W8        29.78F
MOSINEE        CLEAR     46  46 100 W6        29.82S
MARSHFIELD     CLEAR     47  44  90 W6        29.81S
STEVENS POINT  CLEAR     47  47 100 W5        29.83S
WAUPACA        PTCLDY    54  49  85 SW8       29.83R
WAUTOMA        CLEAR     50  48  93 SW6         N/A
WISC RAPIDS    MOCLDY    49  47  93 SW7       29.84S
CAMP DOUGLAS   NOT AVBL
$$

WIZ011>013-019>022-031-037>040-048>050-300900-
NORTHEAST WISCONSIN

CITY           SKY/WX    TMP DP  RH WIND       PRES   REMARKS
ANTIGO         PTCLDY    48  47  99 W7        29.79F
SHAWANO        MOCLDY    54  50  87 W7        29.80R
OCONTO         CLEAR     49  48  95 SW3       29.78S
STURGEON BAY   PTCLDY    53  50  89 W9        29.79R
GREEN BAY      CLOUDY    53  51  93 SW7       29.80R
MANITOWOC      NOT AVBL
APPLETON       PTCLDY    52  46  82 SW9       29.80S
CLINTONVILLE   PTCLDY    52  46  82 SW5       29.81R
OSHKOSH        CLEAR     52  48  86 W6        29.82S
$$

WIZ032>034-041-042-053>061-300900-
SOUTHWEST WISCONSIN

CITY           SKY/WX    TMP DP  RH WIND       PRES   REMARKS
LA CROSSE      CLEAR     55  49  80 W8        29.86F
SPARTA         PTCLDY    43  43  99 CALM      29.87S
VIROQUA        CLEAR     51  48  91 N8        29.88S
BOSCOBEL       CLEAR     51  47  86 S3        29.90S
PRAIRIE DU CHI PTCLDY    55  46  71 W7        29.91R
PLATTEVILLE    CLEAR     52  49  87 SW7       29.92S
$$

WIZ056-057-062-063-064-067-068-300900-
SOUTH CENTRAL WISCONSIN

CITY           SKY/WX    TMP DP  RH WIND       PRES   REMARKS
REEDSBURG      CLEAR     51  49  92 W6        29.87S
BARABOO/DELLS  CLEAR     50  45  85 SW5       29.87S
LONE ROCK      NOT AVBL
MINERAL POINT  CLEAR     52  50  93 W6        29.90F
MADISON        CLEAR     53  48  83 VRB3      29.88R
MIDDLETON      CLEAR     52  47  85 W6        29.88S
WATERTOWN      CLEAR     51  50  96 SW6       29.86S
MONROE         CLEAR     54  45  71 W13       29.90S
JANESVILLE     CLEAR     54  45  71 W8        29.89S
$$

WIZ051-052-058>065-066-070>072-300900-
SOUTHEAST WISCONSIN

CITY           SKY/WX    TMP DP  RH WIND       PRES   REMARKS
MILWAUKEE      CLEAR     55  49  80 W8        29.87S
WAUKESHA       CLEAR     52  45  76 W8        29.88S
MILWAUKEE/TIMM   N/A     50  45  81 SW6       29.87S
RACINE         CLEAR     55  46  71 SW7       29.89S
KENOSHA        CLEAR     53  47  79 SW8       29.88S
FOND DU LAC    CLEAR     53  47  79 SW6       29.83S
SHEBOYGAN      CLEAR     50  49  96 SW6       29.83S
WEST BEND      CLEAR     52  48  87 SW6       29.85S
JUNEAU         CLEAR     49  47  91 SW6       29.87R
$$

LSZ147-162-300900-
LAKE SUPERIOR

STATION/POSITION TIME  TEMP    WIND        PRES    WAVE
                       AIR SEA DIR/SP/G            HT/PER
                 (UTC) (F)     (DEG/KT/KT) (MB)    (FT/S)
DEVILS ISLAND    0700   47     260/ 13/ 14 1007.2F
SAXON HARBOR     0740   54     210/  4/  8 1007.1F
$$

LMZ867-665-643>646-300900-
LAKE MICHIGAN

STATION/POSITION TIME  TEMP    WIND        PRES    WAVE
                       AIR SEA DIR/SP/G            HT/PER
                 (UTC) (F)     (DEG/KT/KT) (MB)    (FT/S)
CHAMBERS ISLAND  0740   52     200/  5/ 10 1007.5R
NORTHPORT PIER   0740   54     240/  4/ 10 1007.5R
KEWAUNEE LAKESHO 0730   54     260/  6/ 10 1008.4R
SHEBOYGAN LAKESH 0700   55     240/  9/ 10 1009.7R
PORT WASHINGTON  0740   55     240/  5/  8 1011.5S
ATWATER BUOY     0609   55     230/ 10/ 12 1011.3R
MILWAUKEE LAKESH 0730   57     270/  8/ 11   N/A
KENOSHA   LAKESH 0700   58     240/  5/  8 1011.9
$$

TC  - TEMPERATURE IN CELSIUS
VSB - VISIBILITY IN STATUTE MILES
WCI - WIND CHILL INDEX
HX  - HEAT INDEX




USA.gov is the U.S. government's official web portal to all federal, state and local government web resources and services.